Payerne Airport

Airport
ICAO code: 
LSMP
Summary
ICAO Region: 
EUR
Territory: 
Location: 
Morens, Fribourg
Serving: 
Payerne
Elevation: 
1465 ft
Coordinates: 
Aerial View: 
46° 50' 35.549" N, 6° 54' 54.209" E
Metar
Observation
LSMP 171550Z AUTO 00000KT 9999NDV NCD 05/01 Q1035 RMK
Station
Payerne
Date/Time
2022-01-17 15:50:00
Wind direction
Wind speed
00 kts
Lowest cloud amount
n/a
Temperature
5°C
Dew point
1°C
Humidity
75%
QNH
1035 hPa
Weather condition
n/a

Payerne Airport is a military airfield of the Swiss Air Force north of Payerne in Switzerland, located approximately halfway between Lausanne and Bern.

Climatology

Warm mediterranean climate (Köppen climate classification Cfa)

Runways

Designator Length Width Surface Rops
5/23 2858 40 ASP No/No
Airport map: 
Aerial View: 

SKYbrary Partners:

Safety knowledge contributed by: